Location: South Range
(44.4886°N, 65.7879°W)
Time: 20:40:39
(UTC-03:00)

Iridium 56 - Visible Passes

Search period start: 31 July 2014 00:00
Search period end: 10 August 2014 00:00
Orbit: 776 x 779 km, 86.4° (Epoch: 31 July)

Date Brightness Start Highest point End Pass type
(mag) Time Alt. Az. Time Alt. Az. Time Alt. Az.
31 Jul 6.1 21:23:11 10° N 21:28:20 62° W 21:33:27 10° SSW visible
01 Aug 8.3 22:32:13 10° NW 22:34:51 14° WNW 22:37:30 10° WSW visible
02 Aug 7.8 21:57:30 10° NNW 22:01:40 25° W 22:05:50 10° SW visible
03 Aug 6.8 21:23:27 10° NNW 21:28:22 44° W 21:33:16 10° SSW visible
05 Aug 8.3 21:58:11 10° NW 22:01:35 18° WNW 22:04:58 10° WSW visible
06 Aug 7.6 21:23:49 10° NNW 21:28:21 31° W 21:32:52 10° SW visible
08 Aug 8.6 21:59:21 10° NW 22:01:27 12° WNW 22:03:32 10° W visible
09 Aug 8.2 21:24:20 10° NNW 21:28:17 22° W 21:32:13 10° SW visible
